User: anonymous   Login
Location: Poughquag
(41.6090°N, 73.6820°W)
Time: 15:52:35
(UTC-04:00)
Language:

ISS - Orbit

View from above orbital plane
View from above orbital plane
View from above satellite
View from above satellite

Ground track
Ground track

The orbit data is extracted from the following two-line orbital elements,

1 25544U 98067A   19177.76809916  .00016717  00000-0  10270-3 0  9031
2 25544  51.6424 313.7540 0008115  88.9246 271.2834 15.51209915 16731
Epoch (UTC): 26 June 2019 18:26:03
Eccentricity: 0.0008115
inclination: 51.6424°
perigee height: 407 km
apogee height: 419 km
right ascension of ascending node: 313.7540°
argument of perigee: 88.9246°
revolutions per day: 15.51209915
mean anomaly at epoch: 271.2834°
orbit number at epoch: 1673

The dashed part of the orbit path shows where the satellite is in the earth's shadow,  

DLR